[[{"header":{"parameterUnit":"m.s-1","parameterCategory":1,"la1":30.2991,"la2":30.254,"lo1":-89.0895,"lo2":-89.0444,"dy":0.0017,"dx":0.0017,"nx":28,"ny":28,"refTime":"2023-07-26T21:00:00:Z","depth":0,"parameterNumber":2,"parameterNumberName":"U-component_of_WINDS"},"data":[0,0,0,0,0,0,0,0,0,0,0,0,0,0,0,0,0,0,0,0,0,0,0,0,0,0,0,0,0,0,0,0,0,0,0,0,0,0,0,0,0,0,0,0,0,0,0,0,0,0,0,0,0,0,0,0,0,0,1.7965,1.7966,0,1.798,1.798,1.798,1.7976,1.7975,1.7975,1.7975,1.7986,1.7986,1.7987,0,0,0,0,0,0,0,0,0,0,0,0,0,1.7933,1.7934,1.7965,1.7966,1.7966,1.798,1.798,1.798,1.7976,1.7975,1.7975,1.7975,1.7986,1.7986,1.7987,0,0,0,0,0,0,0,0,0,0,0,0,0,1.7947,1.7934,1.7965,1.7965,1.7966,1.798,1.798,1.798,1.7976,1.7975,1.7975,1.7974,1.7985,1.7986,1.7987,1.8001,0,0,1.799,1.799,0,0,0,0,0,0,0,0,1.7947,1.7948,1.7965,1.7965,1.7966,1.7975,1.7973,1.7987,1.7976,1.7972,1.7975,1.7974,1.7983,1.7984,1.7987,1.8001,1.8002,1.799,1.799,1.7991,1.7991,0,0,0,0,0,0,0,1.7946,1.7948,1.7971,1.7965,1.7966,1.7964,1.7966,1.7975,1.7979,1.7972,1.7972,1.7974,1.7982,1.7986,1.7987,1.8002,1.799,1.799,1.7991,1.7991,1.8031,1.8031,0,0,0,0,0,0,1.7945,1.7947,1.797,1.7971,1.7955,1.7965,1.7967,1.7973,1.7979,1.798,1.7974,1.7973,1.7985,1.7986,1.7988,1.8005,1.7991,1.7991,1.7992,1.803,1.8031,1.8031,0,0,0,0,0,0,1.7944,1.7947,1.797,1.7959,1.7962,1.7966,1.7973,1.7973,1.7977,1.7981,1.7981,1.7977,1.7985,1.7986,1.7998,1.8006,1.7992,1.7993,1.803,1.803,1.8031,1.804,0,0,0,0,0,0,1.7943,1.7947,1.7952,1.7959,1.7963,1.7981,1.7973,1.7974,1.7979,1.7978,1.7984,1.7984,1.7985,1.7997,1.7999,1.8006,1.7993,1.8029,1.803,1.8031,1.8039,1.8041,1.8043,0,0,0,0,0,1.7942,1.7953,1.7952,1.7955,1.7969,1.7981,1.7983,1.7984,1.7979,1.7985,1.7988,1.7984,1.8005,1.7998,1.8001,1.8008,1.8028,1.803,1.8031,1.8038,1.8041,1.8043,0,0,0,0,0,0,1.7944,1.7953,1.7953,1.7967,1.7973,1.798,1.7987,1.7986,1.7993,1.7992,1.7992,1.7993,1.8006,1.8008,1.8001,1.8023,1.8016,1.8018,1.8021,1.8023,1.8025,1.8024,1.7994,0,0,0,0,0,1.7946,1.7956,1.7963,1.7974,1.7978,1.7982,1.7987,1.7988,1.7994,1.7996,1.8,1.8006,1.8014,1.8019,1.8026,1.804,1.8042,1.8047,1.8049,1.805,1.8051,1.806,1.8063,1.8035,1.8035,1.8035,0,0,1.795,1.7957,1.7962,1.7975,1.798,1.799,1.7984,1.7994,1.8001,1.7997,1.8009,1.8013,1.8019,1.8033,1.8039,1.8035,1.806,1.8052,1.8053,1.8053,1.8062,1.8064,1.8067,1.8036,1.8036,1.8036,0,0,1.7963,1.7968,1.7979,1.7986,1.7994,1.7998,1.8,1.8008,1.8011,1.8024,1.8022,1.803,1.8043,1.8049,1.8053,1.8071,1.8069,1.8074,1.8083,1.8092,1.8094,1.8096,1.8102,1.8105,1.8075,1.8075,1.8075,0,1.7966,1.7981,1.7984,1.7995,1.8001,1.8001,1.8012,1.8018,1.8028,1.8032,1.8029,1.8047,1.8051,1.8067,1.8072,1.8075,1.8078,1.8072,1.8093,1.8095,1.8097,1.8104,1.8106,1.8076,1.8076,1.8076,1.8076,0,1.7985,1.7996,1.8003,1.8016,1.8023,1.8033,1.8039,1.8045,1.8046,1.805,1.8064,1.807,1.8079,1.8083,1.8083,1.8099,1.8097,1.8093,1.8086,1.81,1.8106,1.8109,1.8077,1.8076,1.8076,1.8076,0,0,1.7996,1.8013,1.8016,1.8022,1.8034,1.8042,1.8053,1.8064,1.807,1.8078,1.8088,1.8101,1.8099,1.8104,1.8105,1.8113,1.8128,1.8109,1.8109,1.8112,1.8147,1.8149,1.8152,1.8127,1.8128,1.8128,1.8146,0,1.801,1.8031,1.8036,1.8054,1.8064,1.8066,1.8076,1.8084,1.8089,1.8098,1.8103,1.8112,1.8109,1.8112,1.812,1.8124,1.8135,1.8123,1.8135,1.8136,1.8133,1.8155,1.8156,1.8173,1.8149,1.8149,1.8149,0,1.8027,1.8038,1.8058,1.807,1.8075,1.8084,1.8096,1.8104,1.8114,1.8117,1.8125,1.8126,1.8138,1.8132,1.8149,1.8141,1.8146,1.815,1.815,1.8151,1.8143,1.8155,1.8179,1.8181,1.8153,1.8153,1.8153,0,1.8034,1.8053,1.8068,1.8074,1.8088,1.8095,1.8101,1.8111,1.8118,1.8128,1.8133,1.8144,1.8149,1.8158,1.8162,1.8157,1.8179,1.8173,1.8182,1.8182,1.8185,1.8184,1.8209,1.819,1.819,1.819,1.819,0,1.8048,1.806,1.8072,1.808,1.8094,1.8101,1.8114,1.812,1.8129,1.8139,1.8142,1.8151,1.8156,1.8166,1.817,1.8184,1.8186,1.8189,1.8189,1.8188,1.8188,1.8191,1.819,1.819,1.819,1.819,1.819,0,1.8056,1.8065,1.8081,1.8095,1.8099,1.8109,1.812,1.8129,1.8135,1.8148,1.8151,1.816,1.8173,1.8178,1.8193,1.8195,1.8211,1.8211,1.8208,1.8208,1.8217,1.8216,1.8243,1.8248,1.8226,1.8227,1.8227,0,1.8064,1.8074,1.809,1.8098,1.8105,1.8117,1.8125,1.8132,1.8141,1.8154,1.8162,1.8175,1.8185,1.8205,1.8212,1.8224,1.8224,1.8233,1.8225,1.8225,1.8224,1.8223,1.8224,1.8234,1.8234,1.8234,1.8234,0,1.8078,1.8082,1.8094,1.8109,1.8119,1.813,1.8141,1.8147,1.8156,1.8165,1.8179,1.8188,1.8204,1.8217,1.823,1.8236,1.8237,1.8237,1.824,1.8238,1.8236,1.8237,1.8211,1.8236,1.8236,1.8236,1.8235,1.8235,1.8086,1.8096,1.8109,1.8123,1.8133,1.8144,1.8153,1.8162,1.8174,1.8189,1.8192,1.8207,1.8218,1.8236,1.8243,1.8254,1.8252,1.8256,1.8257,1.8257,1.8258,1.8235,1.8257,1.8257,1.8257,1.8257,1.8257,0,1.81,1.8109,1.8122,1.8139,1.815,1.8152,1.8165,1.8174,1.8188,1.8199,1.821,1.8227,1.824,1.825,1.8263,1.8271,1.8271,1.8274,1.8273,1.8274,1.8259,1.8255,1.8273,1.8273,1.8273,1.8273,1.8273,1.8273,1.8108,1.8125,1.8131,1.8153,1.8162,1.8177,1.8185,1.8195,1.8204,1.8223,1.8235,1.8242,1.8253,1.8268,1.828,1.8283,1.8287,1.829,1.8292,1.8277,1.8275,1.8274,1.827,1.8291,1.8291,1.8307,1.8307,1.8307]},{"header":{"parameterUnit":"m.s-1","parameterCategory":1,"la1":30.2991,"la2":30.254,"lo1":-89.0895,"lo2":-89.0444,"dy":0.0017,"dx":0.0017,"nx":28,"ny":28,"refTime":"2023-07-26T21:00:00:Z","depth":0,"parameterNumber":3,"parameterNumberName":"V-component_of_WINDS"},"data":[0,0,0,0,0,0,0,0,0,0,0,0,0,0,0,0,0,0,0,0,0,0,0,0,0,0,0,0,0,0,0,0,0,0,0,0,0,0,0,0,0,0,0,0,0,0,0,0,0,0,0,0,0,0,0,0,0,0,-2.2827,-2.2828,0,-2.291,-2.2911,-2.2912,-2.2903,-2.2902,-2.29,-2.2899,-2.2984,-2.2988,-2.2991,0,0,0,0,0,0,0,0,0,0,0,0,0,-2.2659,-2.2662,-2.2827,-2.2828,-2.2829,-2.291,-2.2911,-2.2912,-2.2903,-2.2902,-2.29,-2.2898,-2.2983,-2.2987,-2.2991,0,0,0,0,0,0,0,0,0,0,0,0,0,-2.2736,-2.2663,-2.2826,-2.2834,-2.2835,-2.291,-2.2911,-2.2912,-2.2904,-2.2902,-2.29,-2.2898,-2.2982,-2.2987,-2.2992,-2.3064,0,0,-2.3008,-2.301,0,0,0,0,0,0,0,0,-2.2731,-2.2742,-2.2832,-2.2834,-2.2835,-2.2894,-2.2883,-2.2963,-2.2904,-2.2878,-2.2899,-2.2897,-2.2956,-2.2963,-2.2983,-2.3068,-2.3072,-2.3009,-2.3012,-2.3014,-2.3015,0,0,0,0,0,0,0,-2.2726,-2.2738,-2.286,-2.2833,-2.2835,-2.2833,-2.2842,-2.2898,-2.2927,-2.288,-2.2879,-2.2889,-2.2956,-2.2978,-2.2985,-2.3073,-2.3008,-2.3013,-2.3016,-2.3018,-2.3221,-2.3223,0,0,0,0,0,0,-2.2719,-2.2734,-2.2857,-2.2862,-2.2778,-2.2838,-2.2847,-2.2877,-2.2926,-2.2932,-2.2891,-2.2889,-2.297,-2.2979,-2.2988,-2.3076,-2.3014,-2.3019,-2.3022,-2.3219,-2.3222,-2.3224,0,0,0,0,0,0,-2.2715,-2.273,-2.2854,-2.2798,-2.2813,-2.2843,-2.2876,-2.288,-2.2902,-2.2935,-2.294,-2.2908,-2.2969,-2.2981,-2.3045,-2.3079,-2.3021,-2.3026,-2.3216,-2.322,-2.3223,-2.3253,0,0,0,0,0,0,-2.2711,-2.2729,-2.2757,-2.2799,-2.2816,-2.291,-2.2878,-2.2883,-2.2911,-2.2908,-2.2952,-2.2957,-2.2968,-2.3038,-2.3051,-2.3085,-2.303,-2.3214,-2.3218,-2.3222,-2.3249,-2.3257,-2.3264,0,0,0,0,0,-2.2705,-2.2762,-2.2758,-2.2773,-2.2852,-2.2912,-2.2922,-2.2934,-2.2913,-2.2942,-2.2963,-2.2956,-2.3073,-2.3044,-2.3059,-2.3096,-2.3212,-2.3217,-2.3222,-2.3246,-2.3256,-2.3264,0,0,0,0,0,0,-2.2723,-2.2768,-2.2764,-2.2836,-2.287,-2.291,-2.2946,-2.2943,-2.2984,-2.298,-2.2992,-2.3002,-2.3068,-2.3088,-2.3055,-2.3168,-2.3139,-2.3148,-2.3153,-2.3162,-2.317,-2.3164,-2.3034,0,0,0,0,0,-2.2736,-2.2781,-2.2817,-2.2877,-2.2894,-2.2917,-2.2944,-2.295,-2.2985,-2.3,-2.3026,-2.3061,-2.3105,-2.3135,-2.3177,-2.3251,-2.3261,-2.3284,-2.3291,-2.3297,-2.3305,-2.3346,-2.3357,-2.3241,-2.3241,-2.3241,0,0,-2.2762,-2.2792,-2.282,-2.2882,-2.2909,-2.2955,-2.293,-2.298,-2.3014,-2.3007,-2.3071,-2.309,-2.313,-2.32,-2.3232,-2.3219,-2.3338,-2.3303,-2.3308,-2.3312,-2.3352,-2.3363,-2.3373,-2.3244,-2.3244,-2.3243,0,0,-2.2835,-2.2861,-2.2915,-2.2942,-2.2983,-2.2998,-2.3011,-2.3051,-2.3064,-2.3128,-2.3123,-2.3164,-2.3241,-2.327,-2.3294,-2.3376,-2.3372,-2.3389,-2.3428,-2.3469,-2.3478,-2.3486,-2.3517,-2.3527,-2.3396,-2.3397,-2.3397,0,-2.2863,-2.2933,-2.2943,-2.2994,-2.3021,-2.3016,-2.3071,-2.3097,-2.315,-2.3169,-2.3153,-2.3249,-2.3275,-2.3352,-2.3372,-2.3392,-2.3407,-2.3386,-2.3476,-2.3484,-2.3492,-2.3521,-2.3532,-2.3399,-2.3398,-2.3398,-2.3398,0,-2.2965,-2.3014,-2.3052,-2.3104,-2.3135,-2.3188,-2.3206,-2.3236,-2.3239,-2.3255,-2.332,-2.3351,-2.34,-2.3418,-2.3421,-2.3496,-2.3486,-2.3473,-2.3445,-2.3505,-2.3533,-2.3544,-2.3402,-2.3401,-2.34,-2.34,0,0,-2.3054,-2.311,-2.3124,-2.3147,-2.3192,-2.323,-2.3281,-2.3329,-2.3356,-2.3392,-2.3436,-2.3501,-2.3488,-2.3516,-2.3522,-2.3557,-2.3622,-2.3539,-2.3541,-2.3555,-2.3707,-2.3719,-2.3732,-2.3618,-2.362,-2.3622,-2.3704,0,-2.3132,-2.3225,-2.3235,-2.3317,-2.3362,-2.3358,-2.3403,-2.3435,-2.3451,-2.3492,-2.3509,-2.3555,-2.3535,-2.3552,-2.3586,-2.3607,-2.3653,-2.36,-2.366,-2.3662,-2.3653,-2.3746,-2.3758,-2.3835,-2.3715,-2.3717,-2.3718,0,-2.3237,-2.3276,-2.3363,-2.3401,-2.3421,-2.3461,-2.3506,-2.3545,-2.3581,-2.359,-2.3621,-2.3622,-2.3675,-2.3643,-2.3718,-2.3682,-2.3706,-2.372,-2.3723,-2.3731,-2.3696,-2.3758,-2.386,-2.3872,-2.3735,-2.3734,-2.3733,0,-2.3295,-2.3369,-2.3431,-2.3451,-2.3497,-2.3525,-2.3546,-2.358,-2.3608,-2.3647,-2.3666,-2.371,-2.3735,-2.3769,-2.3783,-2.3758,-2.3857,-2.3825,-2.3867,-2.3867,-2.389,-2.3889,-2.3999,-2.3902,-2.3902,-2.3902,-2.3901,0,-2.3382,-2.3436,-2.3458,-2.3496,-2.3556,-2.3567,-2.3626,-2.3645,-2.3675,-2.3717,-2.3714,-2.3754,-2.3768,-2.3809,-2.3819,-2.388,-2.3891,-2.39,-2.3903,-2.3902,-2.3901,-2.392,-2.3916,-2.3905,-2.3904,-2.3903,-2.3903,0,-2.3459,-2.3475,-2.3543,-2.358,-2.359,-2.3633,-2.3665,-2.3702,-2.3717,-2.377,-2.3783,-2.3807,-2.3856,-2.3871,-2.393,-2.3937,-2.4009,-2.4005,-2.3997,-2.3998,-2.4039,-2.4036,-2.4167,-2.4185,-2.4074,-2.4075,-2.4076,0,-2.3515,-2.3556,-2.3598,-2.3626,-2.3647,-2.3692,-2.3721,-2.3732,-2.3762,-2.3806,-2.3838,-2.3886,-2.3925,-2.4004,-2.4026,-2.4071,-2.407,-2.4113,-2.4077,-2.4075,-2.4073,-2.4072,-2.4076,-2.4121,-2.4122,-2.4123,-2.4123,0,-2.3613,-2.3619,-2.366,-2.3705,-2.374,-2.3775,-2.381,-2.3832,-2.3848,-2.3882,-2.3932,-2.3963,-2.4023,-2.4071,-2.4117,-2.4138,-2.4134,-2.4134,-2.4146,-2.4147,-2.4141,-2.4147,-2.4017,-2.4132,-2.4131,-2.413,-2.413,-2.413,-2.3682,-2.3719,-2.3754,-2.38,-2.3827,-2.3859,-2.3896,-2.3915,-2.3957,-2.4007,-2.401,-2.4065,-2.4099,-2.416,-2.4183,-2.4226,-2.4214,-2.4231,-2.4236,-2.4241,-2.4245,-2.4132,-2.4234,-2.4234,-2.4234,-2.4233,-2.4233,0,-2.3782,-2.3804,-2.3846,-2.3894,-2.3931,-2.3923,-2.396,-2.3992,-2.4039,-2.4072,-2.411,-2.4168,-2.4215,-2.424,-2.4287,-2.4316,-2.4315,-2.4328,-2.4327,-2.4332,-2.4252,-2.4238,-2.4328,-2.4328,-2.4328,-2.4328,-2.4328,-2.4328,-2.3838,-2.39,-2.391,-2.3985,-2.4007,-2.406,-2.4082,-2.4112,-2.4138,-2.4202,-2.4241,-2.4257,-2.4287,-2.4336,-2.4378,-2.4384,-2.4402,-2.4417,-2.4422,-2.4347,-2.4338,-2.4329,-2.4315,-2.442,-2.442,-2.4499,-2.45,-2.45]}]]